Location: Asheville, NC
(35.6000°N, 82.5500°W)
Time: 20:09:24
(UTC-04:00)

XW-2F - Pass Details

Date: 06 January 2018
Orbit: 506 x 526 km, 97.5° (Epoch: 25 April)

Event Time Altitude Azimuth Distance (km) Brightness Sun altitude
Rises 07:00:47 0° 3° (N) 2,644 ? -8.1°
Reaches altitude 10° 07:02:59 10° 356° (N) 1,749 ? -7.7°
Maximum altitude 07:06:31 41° 286° (WNW) 760 ? -7.1°
Drops below altitude 10° 07:10:02 10° 215° (SW) 1,725 ? -6.4°
Sets 07:12:10 0° 208° (SSW) 2,603 ? -6.0°
